Lid_Strength_Index
13 13 14 14 13 13 14 13 13 13 12 12 12 12 12 12 12 13 13 13 14 14 14 14 15 14 15 15 14 14 13 12 15 16 15 14 16 16 16 16 15 16 16
14 14 14 14 14 15 15 14 14 14 14 13 13 13 14 14 14 14 15 15 15 15 15 16 16 16 16 16 16 17 16 14 13 16 17 17 17 17 17 17 15 14 15
14 15 15 15 15 15 15 15 15 15 15 15 15 15 15 15 15 15 15 15 16 16 17 17 17 17 18 18 18 17 16 16 15 16 18 17 17 17 17 16 16 16 15
15 15 15 15 15 16 16 16 16 15 15 15 15 15 15 15 15 15 16 16 17 17 17 17 18 18 18 17 17 17 16 16 17 17 17 18 18 17 17 17 17 16 16
16 16 16 16 16 16 16 15 15 15 15 15 16 15 15 16 16 16 16 17 18 18 18 17 16 15 14 15 16 16 17 17 17 17 18 18 18 17 18 17 17 17 16
16 17 17 17 17 17 17 16 15 16 16 16 16 16 16 16 15 15 16 18 18 18 18 17 17 17 15 13 13 13 15 17 17 17 18 18 18 17 17 17 17 18 19
17 17 17 17 17 18 17 17 16 16 16 17 17 17 17 16 15 15 16 17 17 18 18 17 17 17 17 17 15 15 15 14 14 17 18 18 18 17 17 17 17 17 17
18 18 17 17 17 17 18 18 18 18 18 18 18 18 17 15 14 14 15 16 16 17 17 17 17 17 17 17 17 17 17 16 16 16 17 17 17 16 16 16 17 18 19
17 17 17 17 17 17 18 18 18 18 18 18 17 17 17 16 14 14 15 17 16 16 16 16 16 17 15 15 16 16 17 17 14 14 15 15 14 14 14 17 24 24 25
16 16 16 16 16 17 17 17 17 17 16 16 17 17 17 16 14 14 15 16 17 17 16 16 15 16 14 15 16 16 17 17 16 17 16 15 15 16 15 17 18 25 25
16 16 16 16 16 16 17 17 17 17 17 17 17 17 17 16 15 14 14 16 16 16 16 16 15 14 14 14 15 15 15 16 17 19 18 18 18 17 18 17 17 20 25
17 17 18 18 16 16 17 17 17 18 18 19 19 19 18 16 15 14 14 14 14 16 16 16 16 14 14 14 15 14 14 16 22 23 23 22 20 20 19 20 21 21 20
18 19 20 19 17 17 17 17 18 18 18 19 18 19 18 17 16 13 14 14 14 15 15 15 14 14 14 14 14 13 17 21 22 24 23 21 20 20 22 24 24 26 25
19 20 20 20 20 19 17 17 18 18 19 18 18 18 19 19 18 18 16 17 15 16 15 17 15 14 14 14 17 16 18 19 21 22 23 22 23 26 26 25 26 26 27
18 18 17 19 19 19 18 17 17 17 16 18 18 17 19 20 18 15 16 18 19 16 21 22 21 20 20 20 20 20 20 21 23 24 25 25 24 25 24 26 26 29 27
17 16 16 16 16 16 17 18 14 13 13 12 12 15 15 13 12 12 11 11 11 12 22 24 22 20 19 19 20 20 22 22 21 22 24 25 23 24 24 26 26 29 26
16 16 15 16 16 16 17 16 17 17 12 11 11 11 11 12 11 11 11 11 11 11 21 23 20 19 19 19 19 21 21 22 24 24 24 24 24 25 27 24 25 28 25
19 17 14 14 15 16 16 17 19 20 20 19 14 11 11 10 10 10 10 11 20 17 23 20 19 19 18 18 20 22 21 23 26 24 25 25 26 27 28 26 24 28 26
18 17 17 18 18 15 15 20 20 22 21 22 22 16 17 10 9 9 9 15 17 18 19 19 19 19 19 20 20 22 23 24 24 25 27 26 26 29 26 25 25 27 28
18 18 18 17 19 19 18 19 21 21 22 21 21 20 23 22 22 21 22 23 24 20 20 19 19 19 20 20 20 22 24 26 25 25 25 25 25 28 25 25 27 27 28
18 20 18 20 18 18 18 19 20 20 20 20 18 20 14 20 19 21 21 22 20 19 20 22 21 22 22 22 22 23 24 22 24 24 25 25 27 27 26 25 25 29 28
20 20 20 18 21 20 20 20 20 20 20 20 19 23 13 18 20 20 22 22 22 23 23 23 23 24 23 24 24 24 24 24 25 26 25 25 27 27 28 29 28 30 30
23 23 23 25 23 22 23 23 21 21 21 22 23 22 24 21 21 23 23 23 25 24 25 26 25 24 26 26 26 25 24 23 23 26 25 26 26 26 29 28 29 29 32
25 23 22 23 24 24 23 23 24 24 24 24 25 24 24 24 24 24 24 25 28 26 27 27 26 25 25 27 27 27 25 23 28 27 26 25 24 26 28 29 28 30 30
28 27 26 26 26 26 27 27 27 28 26 25 25 28 28 27 27 26 26 27 27 27 27 28 27 28 27 27 26 27 27 23 24 23 25 27 25 25 28 29 30 32 32
29 29 28 28 28 29 29 28 28 29 27 27 27 27 27 27 26 27 27 28 28 27 28 28 29 28 28 27 28 27 26 23 23 23 24 24 24 24 26 26 29 29 28